Home   Weather   Krishnagiri   Past weeks

Flag for India Past Weather in Krishnagiri, Tamil Nadu, India — Yesterday and Last 2 Weeks

66 °F


Feels Like: 66 °F
Forecast: 66 / 89 °F
Wind: 3 mph from East

Location: Bangalore / Hindustan

Current Time: Oct 26, 2016 at 6:03:25 AM

Latest Report: Oct 26, 2016 at 5:30 AM

Visibility: 5 mi

Pressure: 29.92 "Hg

Humidity: 68%

Dew Point: 55 °F

Location of KrishnagiriLocation

Past Weather in Krishnagiri — Graph


Krishnagiri Temperature Yesterday

Maximum temperature yesterday: 86 °F (at 1:30 PM)
Minimum temperature yesterday: 70 °F (at 5:30 AM)
Average temperature yesterday: 79 °F

High & Low Weather Summary for the Past Weeks

High86 °F (Oct 11, 2:30 PM)94% (Oct 11, 5:30 AM)30.04 "Hg (Oct 11, 5:30 AM)
Low64 °F (Oct 24, 6:00 AM)31% (Oct 16, 4:00 PM)29.80 "Hg (Oct 20, 4:00 PM)
Average78 °F55%29.94 "Hg
* Reported Oct 10 11:30 PM — Oct 25 11:30 PM, Krishnagiri, Weather by CustomWeather, © 2016

Note: Actual official high and low records may vary slightly from our data, if they occured in-between our weather recording intervals... More about our weather records


Krishnagiri Weather History for the Previous 24 Hours

Scroll right to see more
Time TempWeatherWind HumidityBarometerVisibility
11:30 PM
Tue, Oct 25
73 °FPassing clouds.5 mph50%29.95 "Hg5 mi
10:30 PM75 °FPassing clouds.5 mph50%29.98 "Hg5 mi
9:30 PM77 °FPassing clouds.5 mph47%29.98 "Hg5 mi
8:30 PM79 °FPassing clouds.5 mph42%29.95 "Hg5 mi
7:30 PM79 °FPassing clouds.3 mph42%29.92 "Hg5 mi
6:30 PM79 °FPassing clouds.3 mph45%29.89 "Hg5 mi
5:30 PM81 °FScattered clouds.3 mph39%29.86 "Hg5 mi
5:00 PM82 °FScattered clouds.3 mph37%29.86 "Hg5 mi
4:30 PM82 °FScattered clouds.3 mph37%29.86 "Hg5 mi
4:00 PM82 °FScattered clouds.5 mph37%29.86 "Hg5 mi
3:30 PM86 °FScattered clouds.3 mph31%29.86 "Hg4 mi
3:00 PM86 °FScattered clouds.5 mph31%29.86 "Hg4 mi
2:30 PM86 °FScattered clouds.5 mph31%29.86 "Hg4 mi
2:00 PM86 °FScattered clouds.3 mph33%29.89 "Hg4 mi
1:30 PM86 °FScattered clouds.3 mph33%29.89 "Hg4 mi
1:00 PM84 °FScattered clouds.3 mph37%29.92 "Hg5 mi
12:30 PM82 °FPassing clouds.6 mph40%29.95 "Hg5 mi
12:00 PM82 °FPassing clouds.5 mph40%29.95 "Hg5 mi
11:30 AM82 °FClear.2 mph45%29.98 "Hg5 mi
11:00 AM82 °FClear.5 mph42%29.98 "Hg4 mi
10:30 AM81 °FClear.5 mph48%29.98 "Hg4 mi
10:00 AM79 °FClear.2 mph51%30.01 "Hg4 mi
9:30 AM77 °FClear.2 mph54%30.01 "Hg4 mi
9:00 AM75 °FScattered clouds.5 mph57%30.01 "Hg2 mi
8:30 AM73 °FFog.5 mph61%30.01 "Hg2 mi
8:00 AM73 °FFog.5 mph61%29.98 "Hg2 mi
7:30 AM72 °FFog.No wind61%29.98 "Hg2 mi
7:00 AM70 °FFog.3 mph60%29.98 "Hg2 mi
6:30 AM70 °FFog.2 mph60%29.95 "Hg2 mi
6:00 AM70 °FPassing clouds.5 mph60%29.95 "HgN/A
Weather by CustomWeather, © 2016

See weather overviewHow to use our weather pages